Regional Weather Roundup
Issued by NWS

Home | Current Version | Previous Version | Graphics & Text | Print | Product List | Glossary On
Versions: 1 2 3 4 5 6 7 8 9 10 11 12 13 14 15 16 17 18 19 20 21 22 23 24 25 26 27 28 29 30 31 32 33 34 35 36 37 38 39 40 41 42 43 44 45 46 47 48 49 50
000
ASUS43 KFSD 180502
RWRSD

WEATHER ROUNDUP FOR SOUTH DAKOTA
NATIONAL WEATHER SERVICE SIOUX FALLS SD
1100 PM CST WED JAN 17 2018

NOTE: "FAIR" INDICATES FEW OR NO CLOUDS BELOW 12,000 FEET WITH NO
SIGNIFICANT WEATHER AND/OR OBSTRUCTIONS TO VISIBILITY.


SDZ001>005-009-010-012>017-180600-
NORTHWEST AND NORTH CENTRAL SOUTH DAKOTA

CITY           SKY/WX    TMP DP  RH WIND       PRES   REMARKS
BUFFALO          N/A     33  22  63 W12       29.94F WCI  24
FAITH            N/A     26  21  81 SW14      30.03F WCI  14
MOBRIDGE       PTCLDY    22  17  81 SE6       30.01F WCI  14
$$

SDZ012>016-024>037-041>051-057-063-072>074-180600-
SOUTHWEST AND SOUTH CENTRAL SOUTH DAKOTA

CITY           SKY/WX    TMP DP  RH WIND       PRES   REMARKS
RAPID CTY ARPT CLEAR     32  18  56 NW5       30.07F WCI  27
PIERRE         CLEAR     28  23  81 CALM      30.09F
CUSTER         CLEAR     36  15  42 W8G18     30.10F
ELLSWORTH AFB  PTCLDY    33  20  59 CALM      30.05F
PHILIP         CLEAR     23  20  88 CALM      30.09F
PINE RIDGE     CLEAR     26  18  71 W3        30.13R
SPEARFISH        N/A     43  18  36 W9        30.04F
WINNER         FAIR      32  22  66 S7        30.13S WCI  26
$$

SDZ004>011-016>023-039-040-180600-
NORTHEAST SOUTH DAKOTA

CITY           SKY/WX    TMP DP  RH WIND       PRES   REMARKS
ABERDEEN       CLEAR     22  18  85 W9        30.04F WCI  12
WATERTOWN      CLOUDY    19  16  88 SW10      30.04F WCI   7
BROOKINGS      CLOUDY    16  13  88 SW6       30.09F WCI   7
SISSETON         N/A     33  23  66 W21G28    29.98S WCI  21
$$

SDZ017-020-022-023-036>040-048>070-180600-
SOUTHEAST SOUTH DAKOTA

CITY           SKY/WX    TMP DP  RH WIND       PRES   REMARKS
SIOUX FALLS    CLOUDY    24  17  74 VRB3      30.13F
HURON          CLEAR     26  21  81 SW6       30.09F WCI  19
CHAMBERLAIN    CLEAR     28  24  85 CALM      30.12F
MITCHELL       CLEAR     24  20  84 SW6       30.13F WCI  17
YANKTON        CLOUDY    27  19  72 SW8       30.15F WCI  19
$$

ABBREVIATIONS USED IN REMARKS
   TC - TEMPERATURE IN CELSIUS
  WCI - WIND CHILL INDEX
   HX - HEAT INDEX
  VSB - VISIBILITY




USA.gov is the U.S. government's official web portal to all federal, state and local government web resources and services.